Hourly Weather Roundup
Issued by NWS Central Illinois

Home | Current Version | Previous Version | Text Only | Print | Product List | Glossary On
Versions: 1 2 3 4 5 6 7 8 9 10 11 12 13 14 15 16 17 18 19 20 21 22 23 24 25 26 27 28 29 30 31 32 33 34 35 36 37 38 39 40 41 42 43 44 45 46 47 48 49 50
000
NZUS43 KILX 241610
HWRILX

AREA WEATHER ROUNDUP
NATIONAL WEATHER SERVICE, LINCOLN IL
1100 AM CDT FRI MAR 24 2017


CITY           SKY/WX    TMP DP  RH WIND       PRES   REMARKS
BLOOMINGTON    SUNNY     72  53  51 SW20G29   29.99R
CHAMPAIGN      SUNNY     71  54  54 S26G35    30.03S
DECATUR        SUNNY     71  54  54 S22G31    30.03R
EFFINGHAM      MOSUNNY   70  59  67 S15G23    30.10S
FLORA          CLOUDY    69  59  71 S21G26    30.12R
GALESBURG      SUNNY     71  50  47 S21G26    29.90F
JACKSONVILLE   SUNNY     71  54  55 S17G25    29.96S
LACON          SUNNY     70  50  49 SW16G23   29.93F
LAWRENCEVILLE  CLOUDY    68  57  68 S22G29    30.15R
LITCHFIELD     SUNNY     68  58  69 S25G32    30.02S
$$


CITY           SKY/WX    TMP DP  RH WIND       PRES   REMARKS
LINCOLN        SUNNY     72  56  57 S14G28    29.98S
MACOMB         SUNNY     73  49  43 S17G23    29.94S
MATTOON        SUNNY     67  56  67 S18G26    30.08R
MT CARMEL AP   CLOUDY    68  56  64 S21G28    30.13S
OLNEY-NOBLE AP CLOUDY    66  61  82 S10G18    30.13R
PARIS          SUNNY     69  57  65 SW23G35   30.10R
PEORIA         SUNNY     73  52  47 SW13      29.94F
PONTIAC        SUNNY     73  52  48 SW24      29.97F
RANTOUL        SUNNY     71  56  58 SW17G26   30.03S
SPRINGFIELD    SUNNY     72  55  55 S17G26    29.98S
TAYLORVILLE    SUNNY     70  57  64 S20G30    30.02S
$$

...REGIONAL REPORTS...


CITY           SKY/WX    TMP DP  RH WIND       PRES   REMARKS
CHICAGO O`HARE CLOUDY    70  49  47 SW17G31   29.91S
KANKAKEE       SUNNY     71  52  50 S21G29    29.99F
MOLINE         MOSUNNY   75  48  38 SW17G26   29.86S
MOUNT STERLING SUNNY     74  50  42 S23G29    29.93S
MOUNT VERNON   CLOUDY    68  59  73 S23G32    30.11S
PITTSFIELD     SUNNY     75  53  45 S17       29.95S
QUINCY         SUNNY     75  49  39 S23       29.91F
ROCKFORD       CLOUDY    70  48  45 SW18G32   29.89S
$$


CITY           SKY/WX    TMP DP  RH WIND       PRES   REMARKS
BURLINGTON     SUNNY     75  47  36 SW26G35   29.88F
CEDAR RAPIDS   CLOUDY    73  50  44 SW18G28   29.84R
DES MOINES     LGT RAIN  63  50  62 W13       29.86R
KIRKSVILLE     CLOUDY    70  32  24 SW17G25   29.90R
OTTUMWA        MOSUNNY   70  46  42 S15       29.85R
ST LOUIS       PTSUNNY   75  55  49 S17       29.99F
$$


CITY           SKY/WX    TMP DP  RH WIND       PRES   REMARKS
TERRE HAUTE    MOSUNNY   68  55  63 S22G29    30.11F
EVANSVILLE     MOSUNNY   71  56  58 S18       30.17F
INDIANAPOLIS   MOSUNNY   70  54  56 SW24G30   30.12F
LAFAYETTE      SUNNY     68  55  63 SW16G25   30.06S
MADISON        CLOUDY    54  45  71 VRB3      29.88R
MILWAUKEE      PTSUNNY   60  46  59 SW12      29.90R
$$






USA.gov is the U.S. government's official web portal to all federal, state and local government web resources and services.